Regional Weather Roundup
Issued by NWS Kansas City/Pleasant Hill, MO

Home | Current Version | Previous Version | Text Only | Print | Product List | Glossary On
Versions: 1 2 3 4 5 6 7 8 9 10 11 12 13 14 15 16 17 18 19 20 21 22 23 24 25 26 27 28 29 30 31 32 33 34 35 36 37 38 39 40 41 42 43 44 45 46 47 48 49 50
000
ASUS43 KEAX 251411
RWREAX

WEATHER ROUNDUP FOR EASTERN KANSAS AND NORTHWEST MISSOURI
NATIONAL WEATHER SERVICE KANSAS CITY/PLEASANT HILL MO
900 AM CDT SAT OCT 25 2014

KSZ040-057-103>105-MOZ028-029-037-043-251500-
...KANSAS CITY METROPOLITAN AREA...

CITY           SKY/WX    TMP DP  RH WIND       PRES   REMARKS
K.C. INTL      FOG       55  55 100 CALM      30.07R VSB 1/4
K.C. DOWNTOWN  FOG       57  56  96 CALM      30.07R VSB<1/4
LEES SUMMIT    FOG       59  58  96 CALM      30.07R VSB 1/2
OLATHE - IXD   FOG       52  51  97 CALM      30.07R VSB 1/4
OLATHE - OJC   SUNNY     58  58 100 CALM      30.06R FOG
LAWRENCE       FOG       52  52 100 CALM      30.07R VSB<1/4

$$

MOZ001>008-011>017-020>025-030>033-038>040-044>046-053-054-251500-
...NORTHERN AND CENTRAL MISSOURI...

CITY           SKY/WX    TMP DP  RH WIND       PRES   REMARKS
ST. JOSEPH     FOG       51  51 100 CALM      30.08R VSB<1/4
MOSBY          FOG       52  52 100 CALM      30.07R VSB 1/4
WHITEMAN AFB   NOT AVBL
CLINTON        SUNNY     61  61 100 SW3       30.07R FOG
SEDALIA        CLOUDY    60  59  96 CALM      30.07R FOG
WARSAW         NOT AVBL
MARSHALL       FOG       61  61 100 SW3       30.06S VSB<1/4
CHILLICOTHE      N/A     51  51 100 CALM      30.08R
MOBERLY        FOG       59  55  88 CALM      30.05R VSB<1/4
KIRKSVILLE     SUNNY     57  57 100 N6        30.06R

$$

MOZ041-047>049-056>058-063>065-088>090-097-251500-
...EASTERN AND SOUTHERN MISSOURI...

CITY           SKY/WX    TMP DP  RH WIND       PRES   REMARKS
ST. LOUIS INTL MOSUNNY   64  61  88 W3        30.05R HAZE
SPIRIT OF STL  SUNNY     58  58 100 CALM      30.04R
COLUMBIA       SUNNY     61  60  97 W3        30.06R FOG
JEFFERSON CITY FOG       56  56 100 CALM      30.07R VSB<1/4
MEXICO         SUNNY    N/A N/A N/A CALM      30.06R HAZE
HANNIBAL       FOG       59  57  94 CALM      30.05R VSB<1/4
ROLLA          SUNNY     62  59  90 W9        30.06R
LEBANON        SUNNY     66  59  77 W12       30.09R
OSAGE BEACH    SUNNY     63  57  82 W5        30.07R
SPRINGFIELD    SUNNY     65  59  81 W9        30.09R
BRANSON        SUNNY     68  59  73 W7        30.11R
NEVADA         SUNNY     61  61 100 SW6       30.10R
JOPLIN         SUNNY     65  60  84 SW7       30.10R
WEST PLAINS    SUNNY     62  58  86 W8        30.09R

$$

IAZ060-094-KSZ022-034>040-054-083-096-NEZ052-066-093-251500-
...KANSAS...SOUTHEAST NEBRASKA AND IOWA...

CITY           SKY/WX    TMP DP  RH WIND       PRES   REMARKS
TOPEKA         FOG       54  54 100 CALM      30.07R VSB 1/4
MANHATTAN      FOG       55  55 100 CALM      30.08R VSB<1/4
EMPORIA        FOG       56  56 100 SE5       30.07R VSB 1/2
CHANUTE        FOG       58  58 100 SE3       30.08R VSB 1/4
WICHITA        FOG       56  55  97 CALM      30.06R VSB 1
OMAHA          MOSUNNY   50  46  86 N6        30.12R
LINCOLN        SUNNY     48  44  86 N5        30.12R
FALLS CITY     SUNNY     50  49  96 CALM      30.07R FOG
LAMONI           N/A     56  48  74 N8        30.08R
DES MOINES     SUNNY     55  46  71 NW5       30.08R

$$




USA.gov is the U.S. government's official web portal to all federal, state and local government web resources and services.